This demonstration page uses our WeatherBlox Daily Observations layout. Learn more.

Left ArrowRight Arrow

38.88101, -77.10428

Hourly Observations for August 20, 2020

Temp ( °F °C ) Dew Point ( °F °C ) Humidity (%) Winds ( mph kmh ) Pressure ( in mb ) Visibility ( mi km ) Precip ( " mm )
12:52 am 00:52 Partly Cloudy 75 23.9 70 21.1 84 84 Calm 30.01 1016 10 16.0934 0 0
1:52 am 01:52 Mostly Cloudy 73 22.8 69 20.6 87 87 NE 6 9 30.01 1016 10 16.0934 0 0
2:52 am 02:52 Mostly Cloudy 72 22.2 68 20 87 87 NE 5 7 30.01 1016 10 16.0934 0 0
3:52 am 03:52 Mostly Cloudy 70 21.1 64 17.8 82 82 N 8 13 30.01 1016 10 16.0934 0 0
4:52 am 04:52 Mostly Cloudy 69 20.6 61 16.1 76 76 NNE 10 17 30.03 1017 10 16.0934 0 0
5:52 am 05:52 Mostly Cloudy 68 20 61 16.1 78 78 NNE 9 15 30.04 1017 10 16.0934 0 0
6:52 am 06:52 Mostly Cloudy 68 20 60 15.6 76 76 NE 8 13 30.06 1018 10 16.0934 0 0
7:52 am 07:52 Partly Cloudy 69 20.6 60 15.6 73 73 NE 8 13 30.07 1018 10 16.0934 0 0
8:52 am 08:52 Mostly Cloudy 72 22.2 62 16.7 71 71 NE 7 11 30.07 1018 10 16.0934 0 0
9:52 am 09:52 Mostly Cloudy 75 23.9 64 17.8 69 69 NNE 6 9 30.08 1019 10 16.0934 0 0
10:52 am 10:52 Mostly Cloudy 78 25.6 65 18.3 64 64 E 5 7 30.08 1019 10 16.0934 0 0
11:52 am 11:52 Mostly Cloudy 80 26.7 65 18.3 60 60 ENE 6 9 30.08 1019 10 16.0934 0 0
12:52 pm 12:52 Mostly Cloudy 80 26.7 65 18.3 60 60 VRB 3 6 30.07 1018 10 16.0934 0 0
1:52 pm 13:52 Mostly Cloudy 80 26.7 63 17.2 56 56 SSE 3 6 30.06 1018 10 16.0934 0 0
2:52 pm 14:52 Mostly Cloudy 83 28.3 60 15.6 46 46 VRB 3 6 30.04 1017 10 16.0934 0 0
3:52 pm 15:52 Partly Cloudy 83 28.3 62 16.7 49 49 SE 5 7 30.02 1017 10 16.0934 0 0
4:52 pm 16:52 Partly Cloudy 82 27.8 64 17.8 55 55 SE 9 15 29.99 1016 10 16.0934 0 0
5:52 pm 17:52 Partly Cloudy 82 27.8 62 16.7 51 51 SSE 6 9 29.98 1015 10 16.0934 0 0
6:52 pm 18:52 Mostly Sunny 80 26.7 61 16.1 52 52 SE 9 15 29.98 1015 10 16.0934 0 0
7:52 pm 19:52 Mostly Cloudy 78 25.6 60 15.6 54 54 ESE 8 13 29.98 1015 10 16.0934 0 0
8:52 pm 20:52 Mostly Clear 77 25 62 16.7 60 60 SE 7 11 30 1016 10 16.0934 0 0
9:52 pm 21:52 Partly Cloudy 75 23.9 64 17.8 69 69 S 7 11 30.02 1017 10 16.0934 0 0
10:52 pm 22:52 Mostly Cloudy 75 23.9 66 18.9 74 74 S 9 15 30.03 1017 10 16.0934 0 0
11:52 pm 23:52 Mostly Cloudy 74 23.3 67 19.4 79 79 S 10 17 30.02 1017 10 16.0934 0 0

Powered by AerisWeather